Aeroporto :
LOGIN :

Iscrizione | Disclaimer

   EN    FR    IT 

 










Sommario :    VFR   VFR Marginale   IFR   IFR Intensivo   IFR Molto Intensivo
Visibilità : 
Base nubi : 
>= 8 km
>= 3000ft
5 / 8 km
1000 / 3000 ft
1500m / 5 km
500 / 1000 ft
800 / 1500m
200 / 500 ft
< 800m
< 200 ft
Simboli :   Temporali  Nebbia  Neve Forte  Precipitazioni Forti  Vento > 20 kt
SIGMETs :   Varie  Temporali  Ghiacco  Turbolenza  Onda orograficha  Ceneri Vulcaniche






- Altitudine del aeroporto : 410 ft
- Codice IATA : AVB


LIPA - Aviano AB Pordenone

ULTIMO METAR :
  • 051355Z 24004KT 9999 FEW035 26/18 Q1005 RMK SCT SCT200 VIS MIN 9999 WIND THR05 /////KT WIND THR23 /////KT A2970 BLU

METARs OBSOLETI :
  • 051255Z 23007KT 9999 SCT035 26/18 Q1005 RMK BKN SCT140 VIS MIN 9999 WIND THR05 /////KT WIND THR23 /////KT A2971 BLU
  • 051155Z 20008KT 9999 FEW045 26/18 Q1005 RMK FEW VIS MIN 9999 WIND THR05 /////KT WIND THR23 /////KT A2971 BLU

TAF TAF LIPA
Valido dal 05 a 15 ore il 06 a 00 ore UTC


051400Z 0515/0524 24008KT 9999 FEW040
TEMPO 0515/0518 5000 TSRA FEW030CB SCT035



MetMap, La meteo Aeronautica in un colpo d'occhio ! - Copyright ORBIFLY Dicembre 2007 - Disclaimer

ORBIFLY MET'MAP TEAM :

Programmazione e sviluppo : Alexandra Zaïnal
Concezione : Baudouin d'Aumeries
Aiuto per la programmazione : Marc-Olivier Méhu
Supporto tecnico e logistico : Manuel Goepfert
Aiuto per la traduzione : Arnaldo La Scala

Contatto : metmap@orbifly.com




FONTI E CREDITI :

   NOAA